User: anonymous   Login
Location: Unspecified
(0.0000°N, 0.0000°E)
Time: 03:18:43
(UTC+00:00)
Language:

AGILE - Orbit

View from above orbital plane
View from above orbital plane
View from above satellite
View from above satellite

Ground track
Ground track

The orbit data is extracted from the following two-line orbital elements,

1 31135U 07013A   18293.60991022  .00002395  00000-0  40683-4 0  9990
2 31135   2.4676 245.9122 0011876  79.6895 280.4497 15.31092050638986
Epoch (UTC): 20 October 2018 14:38:16
Eccentricity: 0.0011876
inclination: 2.4676°
perigee height: 464 km
apogee height: 480 km
right ascension of ascending node: 245.9122°
argument of perigee: 79.6895°
revolutions per day: 15.31092050
mean anomaly at epoch: 280.4497°
orbit number at epoch: 63898

The dashed part of the orbit path shows where the satellite is in the earth's shadow,  

DLR